Melfa, VA

11:27 AM EDT on March 28, 2017 (GMT -0400)
Accomack County

Weather History for KMFV - July, 2013

Change the Weather History Date:

Wednesday, July 17, 2013

  Actual Average (KWAL) Record (KWAL)
Temperature  
Mean Temperature 85 °F -  
Max Temperature 95 °F 82 °F 97 °F (2012)
Min Temperature 75 °F 67 °F 60 °F (1987)
Cooling Degree Days 20    
Growing Degree Days 35 (Base 50)    
Moisture  
Dew Point 74 °F    
Average Humidity 73    
Maximum Humidity 94    
Minimum Humidity 44    
Precipitation  
Precipitation 0.00 in - - ()
Sea Level Pressure  
Sea Level Pressure 30.16 in    
Wind  
Wind Speed 1 mph (ENE)    
Max Wind Speed 7 mph    
Max Gust Speed -    
Visibility 8 miles    
Events      
Averages and records for this station are not official NWS values.
T = Trace of Precipitation, MM = Missing Value Source: NWS Daily Summary

Daily Weather History Graph

Daily Weather History Graph

Search for Another Location

Airport or City:

Trip Planner

Search our weather history database for the weather conditions in past years. The results will help you decide how hot, cold, wet, or windy it might be!

Date:

Astronomy

Jul. 17, 2013 Rise Set
Actual Time 5:55 AM EDT 8:22 PM EDT
Civil Twilight 5:24 AM EDT 8:53 PM EDT
Nautical Twilight 4:47 AM EDT 9:30 PM EDT
Astronomical Twilight 4:06 AM EDT 10:11 PM EDT
Moon 3:10 PM EDT (7/17) 12:58 AM EDT (7/17)
Length of Visible Light 15h 28m
Length of Day
14h 27m
Waxing Gibbous, 67% of the Moon is Illuminated
Jul 17
Waxing Gibbous
Jul 22
Full
Jul 29
Last Quarter
Aug 6
New
Aug 14
First Quarter

Hourly Weather History & Observations

Time (EDT) Temp. Heat Index Dew Point Humidity Pressure Visibility Wind Dir Wind Speed Gust Speed Precip Events Conditions
12:15 AM 77.0 °F - 73.4 °F 89% 30.19 in 10.0 mi Calm Calm - N/A   Clear
12:35 AM 77.0 °F - 73.4 °F 89% 30.18 in 7.0 mi Calm Calm - N/A   Clear
12:55 AM 77.0 °F - 73.4 °F 89% 30.18 in 7.0 mi Calm Calm - N/A   Clear
1:15 AM 75.2 °F - 73.4 °F 94% 30.17 in 7.0 mi Calm Calm - N/A   Clear
1:35 AM 75.2 °F - 73.4 °F 94% 30.17 in 7.0 mi Calm Calm - N/A   Clear
1:55 AM 75.2 °F - 73.4 °F 94% 30.17 in 5.0 mi Calm Calm - N/A   Clear
2:16 AM 75.2 °F - 71.6 °F 89% 30.16 in 5.0 mi Calm Calm - N/A   Clear
2:35 AM 75.2 °F - 71.6 °F 89% 30.16 in 7.0 mi Calm Calm - N/A   Clear
2:56 AM 75.2 °F - 71.6 °F 89% 30.16 in 5.0 mi Calm Calm - N/A   Clear
3:15 AM 75.2 °F - 71.6 °F 89% 30.17 in 7.0 mi Calm Calm - N/A   Clear
3:35 AM 75.2 °F - 71.6 °F 89% 30.17 in 5.0 mi Calm Calm - N/A   Clear
3:55 AM 75.2 °F - 71.6 °F 89% 30.17 in 7.0 mi Calm Calm - N/A   Scattered Clouds
4:15 AM 75.2 °F - 73.4 °F 94% 30.17 in 3.0 mi SW 3.5 mph - N/A   Clear
4:35 AM 75.2 °F - 73.4 °F 94% 30.17 in 7.0 mi Calm Calm - N/A   Clear
4:55 AM 75.2 °F - 73.4 °F 94% 30.18 in 7.0 mi Calm Calm - N/A   Scattered Clouds
5:15 AM 75.2 °F - 73.4 °F 94% 30.18 in 7.0 mi Calm Calm - N/A   Scattered Clouds
5:35 AM 75.2 °F - 73.4 °F 94% 30.18 in 5.0 mi Calm Calm - N/A   Clear
5:55 AM 75.2 °F - 73.4 °F 94% 30.19 in 5.0 mi Calm Calm - N/A   Clear
6:15 AM 75.2 °F - 73.4 °F 94% 30.19 in 4.0 mi Calm Calm - N/A   Clear
6:35 AM 77.0 °F - 73.4 °F 89% 30.19 in 4.0 mi Calm Calm - N/A   Clear
6:55 AM 78.8 °F - 75.2 °F 89% 30.19 in 5.0 mi Calm Calm - N/A   Clear
7:15 AM 80.6 °F 86.2 °F 75.2 °F 84% 30.19 in 5.0 mi Calm Calm - N/A   Clear
7:35 AM 82.4 °F 90.9 °F 77.0 °F 84% 30.19 in 7.0 mi Calm Calm - N/A   Clear
7:55 AM 84.2 °F 96.1 °F 78.8 °F 84% 30.19 in 7.0 mi Calm Calm - N/A   Clear
8:15 AM 86.0 °F 101.9 °F 80.6 °F 84% 30.20 in 10.0 mi WNW 3.5 mph - N/A   Clear
8:35 AM 87.8 °F 102.5 °F 78.8 °F 75% 30.19 in 10.0 mi NW 4.6 mph - N/A   Clear
8:55 AM 89.6 °F 99.8 °F 75.2 °F 62% 30.19 in 10.0 mi NW 3.5 mph - N/A   Clear
9:15 AM 89.6 °F 99.8 °F 75.2 °F 62% 30.19 in 10.0 mi NNW 3.5 mph - N/A   Clear
9:35 AM 89.6 °F 102.2 °F 77.0 °F 66% 30.19 in 10.0 mi WNW 5.8 mph - N/A   Clear
9:56 AM 89.6 °F 102.2 °F 77.0 °F 66% 30.18 in 10.0 mi North 4.6 mph - N/A   Clear
10:15 AM 91.4 °F 105.1 °F 77.0 °F 63% 30.19 in 10.0 mi North 4.6 mph - N/A   Clear
10:35 AM 91.4 °F 102.5 °F 75.2 °F 59% 30.19 in 10.0 mi NNW 3.5 mph - N/A   Clear
10:55 AM 93.2 °F 105.0 °F 75.2 °F 56% 30.19 in 10.0 mi North 4.6 mph - N/A   Clear
11:15 AM 93.2 °F 102.4 °F 73.4 °F 52% 30.19 in 10.0 mi Calm Calm - N/A   Clear
11:35 AM 93.2 °F 102.4 °F 73.4 °F 52% 30.19 in 10.0 mi NNE 4.6 mph - N/A   Clear
11:57 AM 95.0 °F 101.3 °F 69.8 °F 44% 30.19 in 10.0 mi NW 6.9 mph - N/A   Clear
12:15 PM 93.2 °F 100.5 °F 71.6 °F 49% 30.18 in 10.0 mi North 4.6 mph - N/A   Scattered Clouds
12:37 PM 93.2 °F 100.5 °F 71.6 °F 49% 30.18 in 10.0 mi NW 4.6 mph - N/A   Scattered Clouds
12:57 PM 93.2 °F 100.5 °F 71.6 °F 49% 30.18 in 10.0 mi NNW 5.8 mph - N/A   Scattered Clouds
1:15 PM 93.2 °F 98.8 °F 69.8 °F 46% 30.17 in 10.0 mi Calm Calm - N/A   Scattered Clouds
1:35 PM 91.4 °F 98.4 °F 71.6 °F 52% 30.17 in 10.0 mi NE 3.5 mph - N/A   Mostly Cloudy
1:55 PM 91.4 °F 100.1 °F 73.4 °F 55% 30.17 in 10.0 mi Calm Calm - N/A   Mostly Cloudy
2:15 PM 91.4 °F 98.4 °F 71.6 °F 52% 30.16 in 10.0 mi Calm Calm - N/A   Scattered Clouds
2:35 PM 91.4 °F 100.1 °F 73.4 °F 55% 30.16 in 10.0 mi SE 4.6 mph - N/A   Scattered Clouds
2:55 PM 89.6 °F 96.2 °F 71.6 °F 55% 30.16 in 10.0 mi SE 3.5 mph - N/A   Scattered Clouds
3:15 PM 89.6 °F 98.2 °F 73.4 °F 59% 30.16 in 10.0 mi SSE 3.5 mph - N/A   Mostly Cloudy
3:35 PM 89.6 °F 96.2 °F 71.6 °F 55% 30.16 in 10.0 mi Calm Calm - N/A   Scattered Clouds
3:55 PM 91.4 °F 96.8 °F 69.8 °F 49% 30.15 in 10.0 mi SSE 3.5 mph - N/A   Scattered Clouds
5:15 PM 91.4 °F 98.4 °F 71.6 °F 52% 30.13 in 10.0 mi SSE 5.8 mph - N/A   Scattered Clouds
5:35 PM 89.6 °F 96.2 °F 71.6 °F 55% 30.13 in 10.0 mi South 4.6 mph - N/A   Scattered Clouds
5:55 PM 89.6 °F 98.2 °F 73.4 °F 59% 30.13 in 10.0 mi Calm Calm - N/A   Clear
6:15 PM 89.6 °F 96.2 °F 71.6 °F 55% 30.13 in 10.0 mi Calm Calm - N/A   Clear
6:35 PM 89.6 °F 96.2 °F 71.6 °F 55% 30.12 in 10.0 mi Calm Calm - N/A   Clear
6:55 PM 89.6 °F 96.2 °F 71.6 °F 55% 30.12 in 10.0 mi Calm Calm - N/A   Clear
7:15 PM 89.6 °F 98.2 °F 73.4 °F 59% 30.12 in 10.0 mi Calm Calm - N/A   Clear
7:35 PM 87.8 °F 97.6 °F 75.2 °F 66% 30.12 in 10.0 mi SSE 3.5 mph - N/A   Clear
7:55 PM 86.0 °F 95.1 °F 75.2 °F 70% 30.12 in 10.0 mi Calm Calm - N/A   Clear
8:15 PM 84.2 °F 92.3 °F 75.2 °F 74% 30.11 in 10.0 mi SE 3.5 mph - N/A   Clear
8:35 PM 82.4 °F 89.5 °F 75.2 °F 79% 30.12 in 10.0 mi Calm Calm - N/A   Clear
8:55 PM 80.6 °F 86.2 °F 75.2 °F 84% 30.12 in 10.0 mi Calm Calm - N/A   Clear
9:15 PM 80.6 °F 86.2 °F 75.2 °F 84% 30.13 in 10.0 mi Calm Calm - N/A   Clear
9:37 PM 80.6 °F 86.2 °F 75.2 °F 84% 30.14 in 10.0 mi SE 4.6 mph - N/A   Clear
9:56 PM 80.6 °F 86.2 °F 75.2 °F 84% 30.14 in 10.0 mi South 3.5 mph - N/A   Unknown
10:17 PM 80.6 °F 86.2 °F 75.2 °F 84% 30.14 in 10.0 mi SSE 3.5 mph - N/A   Clear
10:35 PM 80.6 °F 86.2 °F 75.2 °F 84% 30.14 in 10.0 mi SSE 3.5 mph - N/A   Clear
10:55 PM 78.8 °F - 73.4 °F 83% 30.14 in 7.0 mi Calm Calm - N/A   Clear
11:15 PM 78.8 °F - 73.4 °F 83% 30.14 in 5.0 mi Calm Calm - N/A   Clear
11:35 PM 78.8 °F - 75.2 °F 89% 30.13 in 7.0 mi South 3.5 mph - N/A   Clear
11:55 PM 78.8 °F - 75.2 °F 89% 30.14 in 4.0 mi Calm Calm - N/A   Clear